Weather History for Winona, MN

Change the Weather History Date:

Saturday, February 25, 2012

  Actual Average Record
Temperature  
Mean Temperature 20 °F -  
Max Temperature 28 °F 35 °F 53 °F (1998)
Min Temperature 12 °F 14 °F -20 °F (1993)
Degree Days  
Heating Degree Days 45    
Moisture  
Dew Point 9 °F    
Average Humidity 61    
Maximum Humidity 74    
Minimum Humidity 51    
Precipitation  
Precipitation 0.00 in - - ()
Sea Level Pressure  
Sea Level Pressure 30.17 in    
Wind  
Wind Speed 8 mph (WNW)    
Max Wind Speed 14 mph    
Max Gust Speed 23 mph    
Visibility 10 miles    
Events      
Averages and records for this station are not official NWS values.
T = Trace of Precipitation, MM = Missing Value Source: NWS Daily Summary

Daily Weather History Graph

Daily Weather History Graph

Search for Another Location

Airport:

Trip Planner

Search our weather history database for the weather conditions in past years. The results will help you decide how hot, cold, wet, or windy it might be!

Date:

Astronomy

Feb. 25, 2012 Rise Set
Actual Time 6:51 AM CST 5:49 PM CST
Civil Twilight 6:22 AM CST 6:18 PM CST
Nautical Twilight 5:48 AM CST 6:51 PM CST
Astronomical Twilight 5:15 AM CST 7:25 PM CST
Moon 8:05 AM CST (2/25) 10:02 PM CST (2/25)
Length of Visible Light 11h 56m
Length of Day
10h 58m
Waxing Crescent, 14% of the Moon is Illuminated
Feb 25
Waxing Crescent
Feb 29
First Quarter
Mar 8
Full
Mar 14
Last Quarter
Mar 22
New

Hourly Weather History & Observations

Time (CST) Temp. Windchill Dew Point Humidity Pressure Visibility Wind Dir Wind Speed Gust Speed Precip Events Conditions
12:18 AM 17.6 °F 4.3 °F 6.8 °F 63% 30.03 in 10.0 mi NNW 12.7 mph 19.6 mph N/A   Overcast
12:38 AM 17.6 °F 3.7 °F 5.0 °F 58% 30.04 in 10.0 mi NW 13.8 mph 21.9 mph N/A   Overcast
12:58 AM 17.6 °F 5.7 °F 5.0 °F 58% 30.05 in 10.0 mi NNW 10.4 mph 21.9 mph N/A   Overcast
1:18 AM 17.6 °F 5.0 °F 5.0 °F 58% 30.06 in 10.0 mi WNW 11.5 mph 16.1 mph N/A   Overcast
1:37 AM 17.6 °F 3.7 °F 5.0 °F 58% 30.06 in 10.0 mi NW 13.8 mph 23.0 mph N/A   Overcast
1:58 AM 17.6 °F 7.3 °F 5.0 °F 58% 30.07 in 10.0 mi WNW 8.1 mph - N/A   Overcast
2:18 AM 14.0 °F 3.9 °F 5.0 °F 67% 30.08 in 10.0 mi WNW 6.9 mph 19.6 mph N/A   Overcast
2:38 AM 14.0 °F 2.9 °F 5.0 °F 67% 30.09 in 10.0 mi NW 8.1 mph - N/A   Scattered Clouds
3:18 AM 14.0 °F 5.1 °F 5.0 °F 67% 30.10 in 10.0 mi WNW 5.8 mph - N/A   Overcast
3:38 AM 14.0 °F 3.9 °F 5.0 °F 67% 30.11 in 10.0 mi WNW 6.9 mph - N/A   Overcast
3:58 AM 14.0 °F 2.9 °F 5.0 °F 67% 30.11 in 10.0 mi WNW 8.1 mph - N/A   Mostly Cloudy
4:18 AM 12.2 °F -1.0 °F 3.2 °F 67% 30.12 in 10.0 mi NW 10.4 mph - N/A   Scattered Clouds
4:38 AM 12.2 °F 1.7 °F 3.2 °F 67% 30.13 in 10.0 mi WNW 6.9 mph - N/A   Clear
4:58 AM 12.2 °F -0.2 °F 3.2 °F 67% 30.14 in 10.0 mi WNW 9.2 mph - N/A   Scattered Clouds
5:18 AM 12.2 °F -1.0 °F 3.2 °F 67% 30.14 in 10.0 mi WNW 10.4 mph - N/A   Scattered Clouds
5:38 AM 12.2 °F -1.0 °F 3.2 °F 67% 30.15 in 10.0 mi WNW 10.4 mph - N/A   Clear
6:38 AM 12.2 °F 0.7 °F 3.2 °F 67% 30.17 in 10.0 mi WNW 8.1 mph - N/A   Clear
6:58 AM 12.2 °F 1.7 °F 3.2 °F 67% 30.17 in 10.0 mi WNW 6.9 mph - N/A   Clear
7:19 AM 12.2 °F 1.7 °F 3.2 °F 67% 30.18 in 10.0 mi WNW 6.9 mph - N/A   Clear
7:38 AM 12.2 °F -0.2 °F 5.0 °F 73% 30.19 in 10.0 mi WNW 9.2 mph - N/A   Clear
7:58 AM 12.2 °F -1.0 °F 5.0 °F 73% 30.21 in 10.0 mi WNW 10.4 mph - N/A   Clear
8:17 AM 14.0 °F 2.0 °F 5.0 °F 67% 30.21 in 10.0 mi WNW 9.2 mph - N/A   Clear
8:38 AM 14.0 °F 1.2 °F 5.0 °F 67% 30.22 in 10.0 mi WNW 10.4 mph - N/A   Clear
8:58 AM 15.8 °F 4.2 °F 5.0 °F 62% 30.22 in 10.0 mi NNW 9.2 mph - N/A   Clear
9:19 AM 17.6 °F 8.2 °F 5.0 °F 58% 30.23 in 10.0 mi NW 6.9 mph - N/A   Clear
9:38 AM 17.6 °F 6.4 °F 5.0 °F 58% 30.24 in 10.0 mi WNW 9.2 mph - N/A   Clear
9:58 AM 17.6 °F 10.7 °F 5.0 °F 58% 30.24 in 10.0 mi West 4.6 mph - N/A   Clear
10:17 AM 17.6 °F 9.3 °F 5.0 °F 58% 30.24 in 10.0 mi West 5.8 mph - N/A   Clear
10:38 AM 19.4 °F 9.5 °F 6.8 °F 58% 30.24 in 10.0 mi WNW 8.1 mph - N/A   Clear
10:58 AM 19.4 °F 11.5 °F 6.8 °F 58% 30.24 in 10.0 mi WNW 5.8 mph - N/A   Clear
11:38 AM 21.2 °F 12.6 °F 8.6 °F 58% 30.24 in 10.0 mi West 6.9 mph - N/A   Clear
11:58 AM 23.0 °F 17.0 °F 8.6 °F 54% 30.24 in 10.0 mi WNW 4.6 mph - N/A   Clear
12:38 PM 23.0 °F - 8.6 °F 54% 30.23 in 10.0 mi Calm Calm - N/A   Clear
12:58 PM 24.8 °F 19.1 °F 10.4 °F 54% 30.22 in 10.0 mi NE 4.6 mph - N/A   Clear
1:18 PM 26.6 °F - 10.4 °F 51% 30.21 in 10.0 mi Calm Calm - N/A   Clear
1:38 PM 26.6 °F 22.6 °F 10.4 °F 51% 30.20 in 10.0 mi ENE 3.5 mph - N/A   Clear
1:58 PM 26.6 °F - 10.4 °F 51% 30.20 in 10.0 mi Calm Calm - N/A   Clear
2:18 PM 26.6 °F 20.0 °F 10.4 °F 51% 30.19 in 10.0 mi NNE 5.8 mph - N/A   Clear
2:38 PM 26.6 °F 22.6 °F 10.4 °F 51% 30.20 in 10.0 mi ENE 3.5 mph - N/A   Clear
2:58 PM 28.4 °F 23.3 °F 12.2 °F 51% 30.20 in 10.0 mi WNW 4.6 mph - N/A   Clear
3:18 PM 28.4 °F 23.3 °F 12.2 °F 51% 30.19 in 10.0 mi WNW 4.6 mph - N/A   Clear
3:38 PM 28.4 °F 23.3 °F 12.2 °F 51% 30.19 in 10.0 mi SW 4.6 mph - N/A   Clear
3:58 PM 28.4 °F 24.6 °F 12.2 °F 51% 30.18 in 10.0 mi WNW 3.5 mph - N/A   Clear
4:18 PM 28.4 °F 24.6 °F 12.2 °F 51% 30.17 in 10.0 mi SW 3.5 mph - N/A   Clear
4:38 PM 28.4 °F - 12.2 °F 51% 30.17 in 10.0 mi Calm Calm - N/A   Clear
4:58 PM 28.4 °F - 12.2 °F 51% 30.17 in 10.0 mi Calm Calm - N/A   Clear
5:18 PM 26.6 °F 22.6 °F 12.2 °F 55% 30.16 in 10.0 mi SE 3.5 mph - N/A   Clear
5:38 PM 26.6 °F - 12.2 °F 55% 30.17 in 10.0 mi Calm Calm - N/A   Clear
5:58 PM 26.6 °F - 12.2 °F 55% 30.17 in 10.0 mi Calm Calm - N/A   Clear
6:18 PM 26.6 °F - 12.2 °F 55% 30.18 in 10.0 mi Calm Calm - N/A   Clear
6:38 PM 26.6 °F - 14.0 °F 59% 30.18 in 10.0 mi Calm Calm - N/A   Clear
6:58 PM 23.0 °F - 14.0 °F 68% 30.18 in 10.0 mi Calm Calm - N/A   Clear
7:38 PM 21.2 °F 16.4 °F 14.0 °F 74% 30.18 in 10.0 mi SE 3.5 mph - N/A   Clear
7:58 PM 23.0 °F 17.0 °F 15.8 °F 74% 30.17 in 10.0 mi SE 4.6 mph - N/A   Clear
8:18 PM 23.0 °F 18.4 °F 15.8 °F 74% 30.18 in 10.0 mi SSE 3.5 mph - N/A   Clear
8:38 PM 23.0 °F 17.0 °F 14.0 °F 68% 30.17 in 10.0 mi SE 4.6 mph - N/A   Clear
8:58 PM 23.0 °F 18.4 °F 14.0 °F 68% 30.17 in 10.0 mi SSE 3.5 mph - N/A   Clear
9:18 PM 26.6 °F 21.2 °F 15.8 °F 64% 30.17 in 10.0 mi South 4.6 mph - N/A   Clear
9:38 PM 26.6 °F 20.0 °F 15.8 °F 64% 30.18 in 10.0 mi SSE 5.8 mph - N/A   Clear
9:58 PM 26.6 °F 19.1 °F 15.8 °F 64% 30.19 in 10.0 mi South 6.9 mph - N/A   Clear
10:18 PM 23.0 °F - 14.0 °F 68% 30.21 in 10.0 mi Calm Calm - N/A   Clear
10:38 PM 23.0 °F 17.0 °F 14.0 °F 68% 30.20 in 10.0 mi South 4.6 mph - N/A   Clear
10:58 PM 23.0 °F 15.8 °F 14.0 °F 68% 30.19 in 10.0 mi SSE 5.8 mph - N/A   Scattered Clouds
11:18 PM 23.0 °F 13.9 °F 14.0 °F 68% 30.18 in 10.0 mi SSE 8.1 mph - N/A   Mostly Cloudy
11:38 PM 23.0 °F 14.7 °F 14.0 °F 68% 30.16 in 10.0 mi SE 6.9 mph - N/A   Scattered Clouds
11:58 PM 23.0 °F 13.9 °F 12.2 °F 63% 30.15 in 10.0 mi SSE 8.1 mph - N/A   Clear